Flag for Congo Dem.Rep. Weather past 2 weeks in Bukavu, Congo Dem.Rep.

Now
81 °F

Partly sunny.


Feels Like: 81 °F
Forecast: 56 / 75 °F
Wind: 12 mph from Southeast

Location: Kigali Airport

Current Time: Sep 22, 2014 at 12:45:54 PM

Latest Report: Sep 22, 2014 at 12:30 PM


Visibility: N/A

Pressure: 30.09 "Hg

Humidity: 51%

Dew point: 61 °F

Location of BukavuLocation

Historic Weather in Bukavu — Graph

°F

Bukavu temperature yesterday

Maximum temperature yesterday: 81 °F (at 11:30 AM)
Minimum temperature yesterday: 59 °F (at 5:30 AM)
Average temperature yesterday: 68 °F

Past Weeks' High & Low Weather Summary

 TemperatureHumidityPressure
High86 °F (Sep 12, 3:00 PM)100% (Sep 8, 2:30 AM)30.30 "Hg (Sep 8, 2:30 AM)
Low52 °F (Sep 11, 2:00 AM)32% (Sep 12, 5:30 PM)30.01 "Hg (Sep 10, 4:00 PM)
Average70 °F74%30.13 "Hg
* Reported Sep 7 12:30 PM — Sep 22 12:00 Noon, Bukavu, Weather by CustomWeather, © 2014

Note: Actual official high and low records may vary slightly from our data, if they occured in-between our weather recording intervals... More about our weather records

Advertising

Bukavu weather history for previous 24 hours

 ConditionsComfort  
Time TempWeatherWind HumidityBarometerVisibility
12:00 PM
Sep 22
79 °FPartly sunny.9 mph58%30.12 "HgN/A
11:30 AM79 °FPartly sunny.9 mph58%30.12 "HgN/A
10:30 AM77 °FScattered clouds.10 mph61%30.15 "HgN/A
10:00 AM75 °FPassing clouds.7 mph69%30.18 "HgN/A
9:30 AM75 °FPassing clouds.7 mph69%30.18 "HgN/A
9:00 AM73 °FPassing clouds.5 mph69%30.18 "HgN/A
8:30 AM73 °FPartly sunny.No wind74%30.18 "Hg5 mi
8:00 AM70 °FPartly sunny.No wind83%30.18 "Hg5 mi
7:30 AM66 °FBroken clouds.No wind94%30.15 "Hg5 mi
7:00 AM64 °FBroken clouds.No wind100%30.12 "Hg5 mi
6:30 AM64 °FBroken clouds.No wind100%30.12 "Hg5 mi
6:00 AM63 °FBroken clouds.No wind100%30.12 "Hg5 mi
5:00 AM63 °FPartly cloudy.No wind100%30.12 "Hg5 mi
2:30 AM64 °FPassing clouds.No wind94%30.09 "HgN/A
2:00 AM64 °FPassing clouds.3 mph94%30.09 "HgN/A
1:30 AM64 °FPassing clouds.5 mph100%30.09 "HgN/A
1:00 AM66 °FPassing clouds.5 mph88%30.09 "HgN/A
12:30 AM66 °FPassing clouds.8 mph94%30.12 "HgN/A
12:00 AM66 °FPassing clouds.3 mph94%30.12 "HgN/A
11:30 PM
Sep 21
66 °FPassing clouds.7 mph94%30.12 "HgN/A
11:00 PM66 °FPartly cloudy.3 mph94%30.15 "HgN/A
10:30 PM68 °FPartly cloudy.3 mph83%30.15 "HgN/A
10:00 PM68 °FPartly cloudy.No wind83%30.15 "HgN/A
9:30 PM68 °FPartly cloudy.No wind83%30.15 "HgN/A
8:30 PM70 °FPartly cloudy.5 mph78%30.12 "HgN/A
8:00 PM70 °FPartly cloudy.8 mph78%30.12 "HgN/A
7:30 PM70 °FPartly cloudy.8 mph78%30.09 "HgN/A
6:30 PM72 °FPassing clouds.5 mph78%30.07 "HgN/A
5:30 PM75 °FScattered clouds.9 mph61%30.09 "HgN/A
5:00 PM75 °FThunderstorms. Partly sunny.9 mph61%30.07 "HgN/A
2:00 PM81 °FWarm.13 mph58%30.12 "HgN/A
12:30 PM81 °FScattered clouds.5 mph58%30.12 "HgN/A
12:00 PM81 °FScattered clouds.7 mph58%30.15 "HgN/A
Weather by CustomWeather, © 2014

See weather overviewHow to use our weather pages